Wind_Speed
8 8 9 8 7 9 9 9 11 13 15 17 17 17 17 16 16 16 15 14 15 16 16 16 17 17 16 15 16 16 17 17 16 16 16 16 16 17 17 16 14 13 11 10 9 9 8 8 7 7 6 4 3 2 2 3 3 2 2 2 3 6 7 7 7 8 8 8 8 8 10 10 10 11 12 13 13 12 11 10 9 8 7 6 5
10 9 9 7 6 8 8 9 11 12 14 17 19 19 18 18 18 18 17 17 17 18 18 18 18 17 17 16 15 15 16 17 16 15 15 15 15 16 16 16 15 14 13 11 11 10 9 9 8 7 7 6 5 5 4 3 2 1 1 2 3 5 6 6 6 6 6 7 7 7 8 9 9 10 11 12 12 12 12 11 10 9 8 7 6
11 11 11 8 6 8 8 8 10 12 14 16 18 19 19 20 19 19 21 20 19 19 20 19 18 18 16 15 14 14 14 15 15 14 14 14 15 15 15 15 15 15 14 13 12 11 10 9 9 8 7 7 7 6 6 5 4 2 1 1 2 4 5 5 5 4 5 6 6 6 6 7 7 8 9 10 11 11 11 11 10 10 9 8 7
11 12 13 10 7 7 8 8 9 11 13 15 17 18 20 22 22 21 22 21 19 20 22 20 18 17 15 14 15 14 14 14 14 14 14 15 15 14 15 15 15 15 15 14 14 12 11 10 9 8 7 7 7 7 7 7 5 4 3 2 1 2 3 4 3 2 3 4 5 5 5 5 6 6 7 8 9 10 10 10 9 9 9 8 7
11 12 14 11 7 6 8 8 8 10 13 15 17 19 21 23 24 23 21 20 19 20 22 20 17 16 15 15 16 16 16 16 17 17 17 17 16 15 14 15 15 15 15 15 14 13 12 11 9 8 7 7 7 7 8 7 6 6 5 3 2 1 2 2 2 2 2 2 3 5 4 4 5 5 6 7 7 8 8 8 8 8 8 8 7
11 12 14 14 10 7 6 7 7 9 13 15 16 18 21 22 23 22 19 20 21 22 22 19 17 17 17 18 19 19 19 19 20 18 17 16 15 13 13 13 14 15 15 15 14 14 12 11 10 9 8 8 7 7 8 7 7 7 7 4 2 2 2 2 2 2 1 1 1 3 3 3 4 4 5 5 5 6 6 7 7 7 7 7 7
11 11 13 14 13 10 7 6 6 9 10 10 13 17 19 20 22 23 22 21 21 22 22 19 17 18 19 19 20 19 19 20 19 17 15 14 13 12 12 12 13 14 15 15 14 14 13 12 11 10 10 9 8 8 8 8 8 8 8 5 4 3 3 3 3 3 2 2 1 2 2 2 2 3 3 3 3 4 5 5 6 5 5 6 6
12 11 12 14 15 12 9 7 6 8 7 7 11 14 17 19 21 23 23 23 22 21 20 19 19 20 21 20 20 20 20 19 17 15 14 14 13 13 13 13 14 14 15 15 14 14 13 13 12 11 11 11 10 10 9 9 9 9 9 8 6 6 5 5 5 4 4 3 3 4 3 3 2 2 3 3 2 2 3 5 5 4 3 4 4
13 13 12 14 15 14 12 9 8 8 8 8 11 13 15 17 19 21 23 23 23 22 20 20 21 21 21 21 20 20 20 18 16 16 15 15 15 15 16 16 16 16 16 15 14 14 14 13 13 12 12 12 11 11 10 10 10 11 11 10 9 8 8 7 7 6 5 4 4 5 5 5 4 3 2 3 2 1 2 3 3 2 2 2 3
14 14 14 14 15 15 14 12 11 10 9 9 11 13 16 17 18 20 22 23 23 22 21 21 22 22 22 22 21 20 19 17 16 17 17 17 17 18 19 19 18 18 17 16 15 15 14 14 14 13 13 13 12 12 11 11 11 12 12 12 11 10 10 9 9 8 6 5 4 5 6 6 6 4 3 3 3 2 1 1 1 1 1 1 1
15 14 14 14 14 15 15 14 13 12 11 11 12 14 16 18 19 19 21 23 23 22 22 22 23 23 22 23 22 20 18 17 17 18 18 18 19 20 20 20 20 19 18 17 17 16 16 16 15 15 14 14 13 13 13 12 12 13 13 14 13 11 11 11 11 10 8 7 6 6 6 7 6 5 4 4 3 3 2 2 2 2 2 1 1
16 15 14 14 14 14 14 14 14 13 13 13 13 14 15 17 18 19 20 23 24 23 22 23 24 23 22 23 22 19 18 18 18 19 20 20 20 20 20 20 20 20 19 18 18 18 18 17 16 16 15 15 14 14 14 13 13 13 14 14 13 12 11 12 12 11 10 8 7 7 7 7 7 6 5 5 4 4 4 4 4 3 3 3 3
18 16 15 14 13 13 13 14 15 14 15 15 14 13 15 17 19 19 21 25 26 25 25 24 24 23 22 22 21 20 19 18 19 20 20 21 20 20 20 20 20 20 19 20 20 20 19 18 18 17 17 16 15 15 15 14 14 14 14 14 13 13 13 12 12 11 10 9 9 8 8 9 8 7 7 7 7 6 5 5 4 4 4 5 5
19 17 16 15 14 13 13 14 15 16 17 16 15 15 14 16 19 19 21 27 28 27 27 24 24 23 22 22 21 20 19 19 20 20 21 21 20 20 20 20 20 20 20 21 21 21 20 20 19 19 18 17 16 16 16 15 15 15 14 14 14 14 14 13 12 11 10 10 10 10 10 10 9 8 8 8 8 8 7 6 5 4 5 6 6
19 18 16 16 15 15 14 15 17 17 17 17 17 17 16 14 17 18 19 26 29 28 27 24 24 24 22 22 21 20 20 20 20 20 21 21 20 19 20 20 21 21 21 21 22 21 21 21 20 19 18 18 17 17 18 17 17 15 15 15 14 14 14 14 13 12 11 11 11 11 10 10 9 9 9 9 9 9 8 7 6 5 5 6 6
20 18 17 16 16 17 16 17 18 19 17 16 16 16 16 14 14 18 19 24 28 27 27 26 26 25 22 21 21 20 20 20 20 21 21 21 20 19 20 21 21 22 22 22 21 20 21 21 20 19 19 19 19 19 19 18 17 16 16 16 15 15 15 15 14 13 13 12 12 12 10 10 10 10 11 11 9 10 9 8 8 7 6 6 6
20 20 18 17 17 18 18 19 19 20 19 16 14 15 15 15 13 18 21 24 27 27 27 27 27 25 23 21 21 20 21 21 21 21 21 21 19 18 19 21 22 23 23 22 21 20 20 20 20 20 19 19 19 19 18 17 17 16 16 16 16 16 16 15 15 15 14 13 13 13 12 12 12 11 13 14 11 11 11 10 10 9 8 8 7
21 21 19 18 17 18 19 20 20 21 20 18 15 15 15 15 13 15 23 25 27 27 26 26 25 25 24 22 22 22 22 22 23 23 22 21 20 19 20 21 22 23 23 22 22 21 21 21 21 20 20 19 19 18 18 17 17 17 17 17 17 17 16 16 16 15 14 14 14 13 12 12 12 12 14 15 13 12 12 12 12 11 10 9 9
22 21 20 19 18 18 19 20 21 21 21 20 18 16 15 15 14 11 21 25 25 25 25 24 23 23 24 24 24 25 25 25 25 24 23 22 21 20 20 20 22 22 23 23 23 22 22 22 21 20 20 19 19 19 18 18 18 18 18 17 17 17 16 16 16 14 14 15 15 14 13 12 13 13 13 15 14 12 12 12 13 13 12 11 11
25 22 21 20 19 19 19 20 21 22 21 21 19 18 16 14 14 9 13 19 21 23 24 25 25 24 25 26 26 27 27 26 26 26 24 23 23 21 20 19 20 21 22 23 23 23 22 22 21 20 19 19 19 19 19 19 19 19 18 17 16 16 16 16 16 15 15 16 15 15 15 14 14 15 14 14 14 13 13 13 13 13 14 14 13
29 26 23 21 20 20 20 20 21 22 23 22 20 18 16 14 12 10 9 11 15 20 23 25 25 25 25 25 26 27 27 27 27 27 26 25 24 23 21 20 20 20 21 22 22 22 21 20 19 18 18 19 19 20 20 20 20 19 19 18 16 16 16 16 17 17 16 16 16 16 16 14 14 15 14 13 14 14 14 14 13 14 15 15 15
33 31 27 25 23 21 21 21 21 22 24 23 21 17 16 14 12 11 11 9 9 16 22 25 26 27 26 26 26 28 29 29 29 29 29 28 27 25 24 24 23 23 23 22 22 21 19 18 17 18 18 19 20 20 20 20 20 20 19 19 18 17 16 16 17 17 16 16 17 16 16 15 15 15 14 13 15 16 15 15 14 15 15 16 16
36 35 32 29 26 24 23 22 22 23 24 24 22 19 16 14 13 12 12 11 10 11 15 21 25 27 29 30 30 30 31 32 32 33 32 31 30 29 28 27 27 26 25 24 23 21 19 18 18 19 19 20 20 21 21 20 20 20 20 20 19 18 17 17 17 18 17 17 17 16 16 16 16 15 14 14 15 16 16 15 15 15 16 16 16
38 37 36 33 30 27 25 23 23 24 24 24 22 21 18 15 13 12 11 11 11 11 11 14 18 22 27 31 32 33 34 34 35 35 35 34 33 32 31 30 29 28 27 26 25 24 22 22 22 22 21 20 20 21 22 21 20 20 20 20 20 19 19 18 18 17 17 17 17 17 17 17 16 15 15 16 15 15 16 16 16 16 16 16 16
41 40 38 36 33 30 27 25 25 25 24 24 23 22 21 18 14 12 11 11 10 9 10 11 14 17 21 27 31 34 35 35 36 36 36 35 35 34 33 32 31 30 29 29 28 27 26 25 25 25 23 22 21 22 23 22 21 21 21 21 21 20 19 19 18 18 18 18 18 18 18 17 16 16 16 16 15 15 15 16 16 16 16 16 16
42 42 40 38 36 34 30 28 27 27 26 25 24 24 22 20 17 13 12 12 11 10 11 12 15 16 17 21 27 33 35 36 37 36 35 36 37 36 35 35 34 33 32 31 30 29 29 28 28 27 26 24 23 23 23 23 22 22 22 23 22 21 21 20 19 18 18 19 19 19 18 17 17 16 16 15 15 15 15 16 16 16 16 17 17
44 44 43 41 38 36 35 32 30 30 28 27 26 25 23 22 19 15 13 13 12 12 13 14 15 16 17 19 23 28 34 36 37 36 34 35 37 37 37 37 36 35 34 33 32 31 31 30 30 29 28 26 25 24 24 24 24 23 23 23 23 22 22 22 21 20 20 20 20 20 19 18 18 17 16 15 15 16 16 16 16 16 16 17 17
42 43 44 43 40 37 36 35 34 33 31 29 27 26 25 23 21 16 14 14 15 15 15 15 14 15 17 19 21 23 26 30 34 36 36 36 37 36 36 37 38 37 36 35 34 33 33 32 31 30 29 28 27 25 24 24 25 25 24 23 23 23 23 23 23 22 22 22 21 21 20 19 19 18 17 16 16 17 17 16 16 16 16 17 18
43 42 41 40 41 40 38 37 37 36 34 32 30 28 26 24 21 17 16 17 18 18 17 16 15 14 16 17 19 20 21 23 27 33 37 38 38 36 35 36 38 38 37 37 37 37 35 34 32 32 31 30 29 27 26 25 25 26 25 24 24 23 23 23 23 23 23 23 23 22 20 20 21 19 18 17 17 17 17 17 16 16 16 18 18
48 48 47 45 43 42 41 40 40 38 37 35 32 30 27 24 21 19 19 20 20 20 20 19 17 16 16 16 17 19 20 21 23 27 32 36 38 36 36 37 39 40 39 39 39 39 37 35 35 34 33 31 30 29 28 27 26 26 26 26 25 24 24 24 24 24 24 24 24 23 21 21 22 20 19 18 17 18 17 17 16 16 17 18 18
47 49 51 53 51 45 41 41 42 40 38 36 33 31 29 25 22 21 22 22 22 22 22 20 20 19 17 16 16 17 18 19 22 25 27 30 35 37 36 36 38 41 41 40 40 39 38 36 35 35 35 34 33 33 31 29 28 27 27 27 26 25 25 25 25 25 25 25 25 24 22 22 22 21 20 19 18 18 17 17 17 17 17 18 18
45 46 48 52 54 50 43 40 42 43 39 36 35 33 31 27 23 23 24 23 22 22 21 20 20 20 19 18 17 16 15 17 20 23 23 25 30 35 36 36 37 40 42 41 40 39 39 37 35 35 36 35 35 35 33 31 30 28 28 28 27 26 26 26 26 26 25 25 25 24 23 22 22 22 22 20 19 19 18 18 18 18 18 18 17
40 42 44 47 49 50 45 38 39 44 42 37 35 35 33 28 25 25 26 24 22 21 20 19 19 20 20 20 18 16 15 16 18 20 21 23 25 28 31 33 34 38 42 43 42 41 38 36 34 36 37 37 36 36 35 34 33 31 29 28 28 27 27 27 27 26 25 26 25 24 24 23 22 22 22 21 21 20 19 18 18 18 18 17 17
36 36 38 40 41 43 42 38 37 43 45 40 36 36 34 29 26 26 27 26 23 21 19 18 18 19 20 21 20 17 15 16 17 17 19 21 23 24 27 30 31 35 40 43 42 39 36 35 36 37 37 36 36 35 36 36 35 32 30 29 28 28 28 28 28 27 26 26 25 25 25 24 23 23 22 21 20 19 18 19 18 18 18 17 18
33 32 34 36 35 33 33 34 35 39 42 40 37 37 35 30 26 26 27 27 25 23 21 19 19 19 20 20 20 18 16 15 16 17 18 20 22 24 26 28 29 30 34 38 38 35 34 35 38 38 36 36 37 38 38 37 36 33 31 31 30 30 29 28 28 27 27 27 26 25 25 24 23 23 23 21 20 18 18 19 18 18 18 18 19
30 30 30 33 33 29 26 27 31 34 38 39 39 38 36 32 28 27 28 29 28 26 24 22 20 20 21 20 19 18 17 16 17 19 20 21 22 23 23 25 26 27 29 32 33 33 33 31 30 30 30 31 36 38 37 36 35 34 33 33 32 30 29 28 28 27 27 27 26 25 24 25 25 24 24 22 20 18 18 19 19 19 19 18 18
28 28 28 29 32 30 26 25 27 30 35 38 38 37 36 33 31 29 30 31 31 29 27 24 21 21 21 21 19 18 17 17 19 20 22 22 22 22 22 21 23 25 27 29 30 32 33 32 30 28 28 30 33 34 34 35 35 34 34 33 31 30 29 28 27 27 27 26 26 25 25 25 25 25 24 22 20 19 19 19 19 18 18 18 17
26 26 26 28 30 30 28 26 26 27 30 34 36 36 35 34 33 31 32 33 32 28 26 24 21 20 21 21 20 19 18 17 18 21 22 21 20 20 19 18 20 22 24 26 27 28 29 30 31 31 31 32 33 33 33 34 33 33 32 32 31 30 29 27 27 26 26 26 26 25 24 24 24 24 23 21 20 20 20 19 18 17 17 17 16
24 25 24 25 29 30 29 28 27 27 28 31 35 36 36 35 34 33 35 35 31 27 25 23 20 19 20 21 21 20 19 17 18 20 21 21 19 18 16 15 17 19 19 21 23 23 24 25 25 25 25 26 28 31 32 33 32 31 31 31 30 30 28 27 25 25 24 24 24 22 22 23 23 23 22 21 19 18 18 17 17 16 16 16 16
25 24 23 23 26 29 29 29 29 27 26 29 33 35 35 34 34 34 36 35 31 27 26 24 20 19 20 20 21 21 19 17 17 18 20 20 19 18 15 15 16 16 15 18 20 20 21 22 22 22 21 21 23 26 28 30 30 30 30 30 29 28 27 25 23 22 22 22 21 21 21 21 21 21 19 18 17 16 16 16 16 16 16 16 16
25 25 24 22 23 26 28 29 29 27 26 25 27 30 32 32 32 33 35 34 30 27 25 23 21 21 21 20 21 22 20 18 17 17 18 18 18 17 15 15 17 16 13 15 17 17 18 20 21 21 21 20 21 22 24 26 27 27 27 27 26 26 26 24 21 20 20 20 20 20 19 18 17 17 16 16 16 16 17 17 17 17 17 17 17
25 25 24 23 22 23 25 27 28 27 26 25 25 27 30 31 31 31 32 32 30 27 24 22 21 21 21 20 21 23 22 20 18 17 17 17 17 17 16 14 15 15 12 12 15 16 17 19 20 20 20 20 20 20 21 22 23 23 23 24 24 26 24 21 20 19 19 19 19 17 17 16 15 15 16 16 17 17 17 17 17 17 18 18 18
25 25 24 23 22 22 23 25 26 26 27 27 27 27 29 30 30 30 31 30 29 27 25 23 22 22 21 20 21 23 23 22 20 18 17 17 17 17 16 13 11 11 11 12 13 14 15 16 18 19 20 20 19 19 18 18 18 20 21 23 24 23 21 19 19 19 18 17 17 16 16 16 16 16 17 17 17 17 18 18 18 18 19 19 20
26 25 24 23 23 23 22 23 24 26 27 29 29 30 30 31 31 30 30 30 29 27 26 25 24 24 23 21 22 23 24 25 23 21 18 17 17 17 16 13 10 10 9 9 9 8 8 10 14 17 18 19 17 16 15 15 16 17 19 20 19 18 18 18 18 17 17 17 16 16 16 16 16 16 16 17 17 18 18 19 19 19 20 20 20
26 25 24 24 24 23 23 23 22 23 26 29 31 31 32 32 32 31 31 30 29 29 29 28 26 25 24 22 22 24 25 26 26 23 19 17 17 18 16 14 12 12 10 8 7 6 5 5 7 9 11 13 13 12 12 12 13 14 15 15 15 16 16 17 17 16 16 16 16 16 15 15 16 16 17 17 18 18 19 19 19 19 19 20 20
26 26 25 24 24 24 24 23 22 22 24 28 31 32 33 33 33 32 31 31 30 31 31 30 27 26 26 24 23 24 26 28 27 25 21 19 18 18 16 15 15 15 14 12 11 10 8 7 6 6 7 9 10 10 11 12 13 13 14 15 16 16 17 16 16 16 16 15 15 15 15 15 16 17 17 18 18 18 18 18 18 18 19 19 20
26 25 25 24 25 24 24 24 23 22 22 25 29 31 33 33 34 33 33 32 31 32 34 31 27 27 27 26 25 26 27 29 29 27 24 21 19 18 17 17 17 18 18 17 15 14 12 11 10 9 9 10 11 12 13 14 15 15 16 16 16 16 15 15 15 15 14 15 15 15 15 16 16 17 17 17 17 18 18 18 18 19 19 19 20
27 26 25 24 25 25 25 24 24 22 22 24 26 29 32 33 34 34 34 33 32 33 35 33 29 28 28 27 25 26 28 29 30 28 26 23 21 20 20 19 19 20 21 20 18 16 15 15 14 14 14 14 15 15 16 16 16 16 16 16 16 16 15 15 16 16 16 16 16 17 17 17 18 18 18 19 19 19 19 19 19 20 20 21 21
28 27 26 24 24 25 25 25 24 22 22 23 25 27 30 32 34 34 35 34 34 34 35 34 30 28 29 29 27 26 27 30 30 29 27 25 23 22 22 22 22 22 22 22 20 18 18 17 17 16 16 16 16 16 16 16 15 15 16 16 16 16 17 17 17 18 18 17 18 18 18 19 19 19 19 19 19 19 19 19 19 19 19 20 20
29 27 27 26 24 24 25 26 25 23 22 23 24 26 28 31 33 35 35 35 35 35 36 35 32 28 28 30 29 27 27 30 31 30 28 27 26 25 25 24 24 24 24 23 22 20 20 19 18 18 17 17 16 16 16 16 16 16 16 17 17 17 18 18 18 18 18 18 19 19 19 20 20 20 19 19 19 18 18 17 17 17 17 18 18
27 26 26 26 25 24 25 26 25 23 22 22 24 25 27 29 32 35 36 37 37 37 37 36 33 30 29 31 31 29 28 28 30 31 30 29 29 29 27 27 27 27 26 24 23 21 20 19 18 18 17 17 17 16 16 16 16 16 16 17 17 18 18 18 19 19 19 19 20 20 20 20 19 19 18 18 17 17 16 16 16 16 17 17 17
Wind_Direction
317 300 289 291 296 284 279 277 266 254 248 246 247 248 244 239 237 235 233 235 235 226 214 210 211 212 209 208 209 209 209 205 205 213 216 214 214 215 216 219 218 215 213 210 210 212 213 212 213 215 213 212 211 197 168 162 164 126 62 27 58 67 54 38 22 13 19 27 24 23 27 28 32 39 48 56 61 67 73 77 82 88 94 102 107
324 304 292 297 305 294 285 277 269 260 252 248 245 244 239 236 236 235 230 226 229 230 222 214 212 213 212 212 213 214 218 216 213 219 224 222 222 222 222 224 225 225 224 221 219 221 221 220 220 220 219 218 223 226 225 220 211 161 79 3 37 66 58 45 30 10 8 15 18 24 27 27 32 38 45 55 60 62 68 74 81 86 91 97 103
324 309 300 309 320 305 290 276 270 264 257 254 252 249 244 241 241 238 233 225 224 229 228 219 213 213 213 213 215 217 222 223 221 223 227 229 229 229 229 230 230 231 230 229 227 228 229 228 227 227 225 225 228 233 238 244 249 250 244 303 16 59 59 47 38 14 360 360 4 18 27 28 34 39 42 51 58 60 62 67 73 80 85 90 98
323 314 308 320 334 311 294 278 267 264 264 262 259 255 249 246 247 245 239 233 228 227 228 224 216 211 209 210 213 215 218 220 219 219 223 227 229 231 233 234 234 233 232 232 232 234 236 236 236 235 234 234 235 238 245 252 261 275 274 271 327 48 54 43 36 18 357 353 350 355 14 30 33 36 43 50 54 58 58 60 66 73 79 84 92
324 318 314 324 341 321 297 285 274 266 261 258 254 250 245 243 246 246 238 234 236 232 229 228 219 209 204 206 209 210 213 214 213 213 216 220 223 228 233 236 236 234 233 233 234 237 240 242 244 246 247 248 248 249 254 260 269 276 275 272 290 8 31 23 14 354 345 349 337 333 350 18 28 32 40 44 48 54 56 56 60 67 73 79 85
333 327 323 329 344 348 316 295 283 266 259 260 260 255 249 244 246 246 233 224 230 232 231 230 219 208 204 205 209 209 211 215 216 215 219 222 224 229 235 239 240 238 235 235 236 238 241 244 249 254 256 257 257 258 261 264 269 273 275 277 293 321 334 329 321 314 309 316 310 312 328 353 8 17 29 38 43 46 50 51 52 58 64 70 77
346 336 331 332 339 350 340 316 296 278 275 279 275 268 261 253 248 246 236 226 224 225 231 234 223 211 207 208 211 213 216 222 225 225 230 235 237 239 240 242 242 240 238 236 237 239 241 244 248 253 258 260 259 259 261 264 268 274 279 286 294 300 297 289 283 278 265 237 217 248 278 304 332 350 5 21 37 39 45 50 44 46 56 59 65
352 339 335 335 338 343 341 334 321 305 303 292 276 271 266 259 253 247 241 234 227 222 227 234 227 216 213 212 212 215 219 226 230 230 234 239 242 243 241 240 240 239 237 236 235 237 239 242 245 250 255 259 259 259 261 264 269 275 281 285 286 284 279 274 270 262 253 240 208 203 217 230 247 291 326 343 21 33 40 49 40 36 53 53 53
354 346 340 339 340 341 339 335 328 317 310 292 274 267 261 256 253 248 243 237 231 224 221 227 228 221 218 218 215 216 220 225 230 231 231 234 236 237 236 237 238 238 238 237 235 235 237 239 243 246 250 254 256 259 260 262 267 272 276 278 278 277 273 268 264 257 250 240 219 203 204 209 213 224 270 302 322 1 32 45 40 45 56 48 41
358 354 350 347 345 345 343 337 326 318 312 292 271 261 254 251 250 247 242 237 232 225 221 225 227 223 221 222 221 220 220 222 227 230 231 231 232 233 233 234 236 238 239 238 236 236 236 237 240 243 245 249 252 254 256 258 262 266 269 271 270 269 267 266 265 262 256 250 240 223 211 208 212 215 231 265 291 318 354 1 358 29 47 33 10
2 358 356 355 353 349 347 340 330 322 310 287 269 260 253 248 245 242 238 235 231 226 225 227 225 223 223 225 225 224 220 220 224 228 230 231 232 233 234 236 237 240 241 240 239 238 237 237 239 241 243 245 248 249 250 252 257 261 264 265 263 262 265 268 269 266 261 260 258 248 233 219 216 219 229 245 264 288 314 321 319 324 320 309 319
359 357 355 356 356 354 349 341 333 322 305 295 289 279 265 255 250 243 233 229 228 224 223 224 223 224 226 226 228 227 223 220 223 227 229 231 234 236 238 240 240 242 243 243 243 241 240 240 239 241 242 243 246 248 248 249 253 257 260 261 262 261 260 261 263 263 260 254 248 249 248 239 232 224 224 235 249 268 288 298 302 311 314 311 311
351 352 352 352 352 352 347 338 330 320 312 313 313 296 271 256 253 250 234 222 222 221 220 220 221 224 228 228 228 228 225 223 224 228 231 232 235 238 240 242 242 242 242 243 244 243 243 243 242 243 243 243 246 249 250 251 250 252 256 260 261 259 256 256 259 262 263 259 250 244 241 245 250 243 229 230 242 257 268 278 288 300 308 310 308
345 345 347 348 346 344 341 334 325 320 324 329 328 318 295 266 256 258 242 222 217 217 218 220 223 225 228 229 229 227 226 226 227 230 233 234 236 239 242 244 244 243 241 241 242 244 245 246 245 244 244 244 247 250 251 251 250 250 253 256 256 256 257 258 260 261 261 262 258 249 240 243 249 248 240 236 240 248 252 257 266 281 298 305 306
340 338 339 342 343 339 333 329 324 324 333 338 335 328 318 290 261 257 247 224 214 215 218 220 222 225 229 231 230 228 227 227 230 233 236 237 236 238 241 244 245 245 242 241 242 243 246 247 247 247 247 248 249 250 250 250 250 250 250 252 253 255 257 257 259 258 255 254 254 250 250 253 253 250 247 244 242 245 246 247 252 264 282 293 299
337 336 333 333 336 335 330 325 323 327 336 344 341 330 324 311 266 242 236 223 215 216 219 222 223 225 228 232 232 231 230 229 232 235 238 239 236 235 238 242 246 248 247 245 245 245 246 249 251 252 253 253 252 250 249 248 250 250 251 252 251 252 253 254 256 255 253 252 251 250 255 261 260 256 253 251 246 246 248 249 254 262 270 280 288
329 331 331 327 327 328 328 325 322 325 334 341 342 335 330 322 281 238 226 221 218 219 221 223 226 226 227 231 233 233 233 232 234 236 239 241 238 235 238 241 245 249 252 252 251 250 250 252 254 255 255 255 254 253 251 250 251 251 251 250 251 252 251 251 254 254 254 254 254 256 260 262 259 258 262 263 254 249 254 255 258 263 268 274 279
320 322 324 324 322 322 323 325 323 322 328 333 338 339 336 331 305 246 224 221 220 223 226 226 227 228 228 230 233 233 233 233 234 235 237 239 240 237 238 242 246 250 254 257 257 256 255 256 256 256 256 255 254 253 253 253 252 251 250 247 250 255 254 250 250 252 254 254 253 255 257 257 254 254 264 268 259 252 257 260 262 266 268 272 276
311 313 315 316 316 318 319 323 326 323 322 324 331 340 341 340 331 267 227 223 222 223 227 230 230 231 230 230 232 233 233 233 234 235 236 237 238 237 237 242 248 251 254 257 258 258 257 256 256 256 255 254 254 253 253 254 253 252 252 248 247 250 251 247 245 248 250 251 251 254 255 255 255 256 260 262 258 254 256 259 265 269 270 273 276
304 306 307 308 308 310 312 317 323 325 322 318 321 333 339 342 342 309 238 225 223 223 226 229 232 234 232 231 233 235 236 236 238 239 240 240 240 239 238 241 248 253 256 256 257 257 257 257 257 258 257 256 255 254 254 255 255 255 254 252 251 252 252 249 246 247 248 249 251 255 256 254 255 260 261 256 255 258 257 258 262 266 269 272 272
298 300 300 301 301 302 304 308 316 322 323 319 316 323 331 335 337 322 274 234 222 224 228 232 235 236 236 236 238 240 241 241 242 244 244 244 246 246 245 244 247 250 254 255 255 254 254 257 259 261 262 262 260 257 254 254 255 256 256 255 254 253 254 254 252 252 251 251 253 255 255 253 255 260 261 256 257 260 258 257 260 262 265 268 270
293 295 296 296 296 297 298 302 308 315 321 320 315 314 318 320 321 315 301 280 242 229 231 233 235 236 236 236 238 241 242 242 242 243 244 244 246 248 249 248 247 247 246 247 249 249 250 256 261 264 263 263 261 259 256 255 256 258 259 258 256 252 249 250 253 255 254 252 253 252 251 252 255 257 257 258 261 261 259 258 259 260 262 265 269
287 289 290 291 292 293 293 296 301 308 315 317 312 305 303 305 310 313 308 300 287 265 250 242 239 239 239 237 235 235 237 239 240 240 241 242 244 245 246 246 247 248 247 245 246 248 251 255 258 260 261 259 257 256 255 255 256 258 260 259 258 254 251 248 248 251 251 251 253 254 251 250 253 255 256 258 261 262 263 262 262 262 263 264 266
282 283 285 286 286 287 288 291 296 301 306 308 305 298 292 293 299 308 312 307 295 287 280 267 256 251 248 245 242 239 238 238 238 240 240 240 241 242 244 244 245 247 248 247 245 244 245 248 251 253 256 257 255 252 251 251 253 255 257 258 257 256 254 252 249 249 250 250 250 250 249 248 250 253 254 255 256 261 265 265 265 265 264 263 265
276 277 279 280 281 281 282 285 290 294 297 298 296 292 288 287 290 295 305 310 299 283 276 269 264 261 255 250 248 247 245 244 243 243 243 242 242 243 244 245 246 246 246 246 244 242 242 244 247 249 251 253 253 250 248 248 248 250 252 253 255 255 254 253 252 252 253 252 251 250 250 249 250 251 254 254 254 257 261 263 264 264 265 265 264
271 272 273 274 276 277 278 280 284 286 287 288 289 288 287 285 285 292 302 306 300 287 275 266 260 261 259 252 247 246 246 247 247 247 246 245 245 245 245 244 245 246 246 246 245 244 243 243 245 247 248 249 251 249 246 245 245 246 247 248 249 250 251 251 253 255 257 257 256 255 254 252 251 253 255 256 255 256 258 260 263 265 266 265 263
266 268 269 269 271 273 274 276 278 280 280 280 281 284 285 284 283 291 302 299 290 283 280 276 272 270 268 262 254 248 245 244 245 246 248 248 247 249 249 248 247 246 246 246 246 245 244 243 244 246 247 248 250 250 247 244 243 244 244 245 245 245 248 250 253 256 258 258 257 255 255 255 255 256 258 257 255 255 256 257 260 263 264 265 265
265 264 262 262 265 268 270 272 273 274 275 275 276 278 281 282 281 285 290 287 279 277 279 283 286 286 282 274 267 261 255 250 247 247 249 248 246 248 250 250 250 248 247 246 246 246 244 243 244 245 246 247 248 250 248 245 243 244 245 245 245 245 247 250 253 255 256 257 256 255 255 255 256 257 257 254 253 254 255 256 259 262 264 265 265
268 267 262 258 259 262 265 267 268 269 271 272 273 274 275 277 278 277 277 274 272 273 277 284 288 289 289 285 278 272 268 263 256 251 249 248 246 246 248 248 248 248 247 246 245 245 245 245 246 246 246 246 247 248 248 246 245 245 245 246 247 247 249 250 252 254 254 254 254 254 253 254 255 254 253 252 251 253 254 255 258 262 264 264 263
269 271 270 266 261 259 259 262 264 265 267 269 270 270 269 270 272 271 268 267 269 273 278 282 283 283 287 291 288 279 273 270 264 259 253 250 248 247 249 250 247 245 246 246 244 244 245 246 248 248 248 248 248 248 248 247 247 247 246 246 247 248 250 251 251 252 252 251 251 251 251 252 255 254 253 251 250 251 252 253 256 259 261 263 264
269 270 271 271 269 264 257 257 258 259 261 264 266 267 264 263 265 267 264 263 266 272 277 278 278 279 283 287 289 285 276 269 264 261 257 252 247 246 248 251 248 242 242 244 244 244 245 246 247 249 249 250 249 247 247 247 248 249 248 246 246 248 250 251 250 249 250 249 247 247 247 249 253 254 253 250 248 248 248 249 252 255 257 261 264
272 270 269 271 272 270 264 259 255 253 255 258 261 262 260 258 261 265 263 262 263 267 272 275 277 280 283 285 288 284 273 265 261 261 259 252 247 245 247 251 248 239 238 241 242 243 245 246 247 249 248 248 249 247 246 247 247 248 248 246 246 248 249 249 250 249 249 249 247 246 245 246 249 250 251 250 248 246 245 246 249 252 254 258 261
276 273 271 272 273 274 271 263 254 248 247 252 256 256 254 254 257 262 264 264 265 264 266 274 280 282 284 287 287 280 268 263 263 264 261 255 250 248 248 249 246 239 238 240 239 240 242 245 248 248 246 244 245 243 243 245 245 245 246 245 245 248 249 249 250 250 249 248 246 245 245 245 245 247 249 250 248 246 246 247 249 251 253 255 258
283 279 276 275 276 277 274 268 261 250 241 243 251 251 249 250 252 257 262 264 265 263 263 271 278 279 282 287 287 278 267 263 263 266 266 261 255 249 246 244 243 242 241 239 237 237 238 243 245 245 242 241 241 241 241 241 241 241 243 244 245 247 249 249 250 250 249 248 246 246 247 247 248 250 248 246 246 246 247 248 248 248 250 251 252
289 285 281 277 275 277 274 269 266 253 239 238 245 246 246 248 249 252 258 261 261 260 259 264 270 271 277 285 286 278 270 266 264 263 265 265 258 250 244 239 239 242 239 234 231 231 235 241 240 236 235 236 236 236 236 237 238 239 241 242 244 247 248 249 250 250 249 249 249 249 249 248 249 249 247 245 245 244 244 244 245 245 246 247 248
290 288 285 279 275 273 270 265 262 254 243 239 240 241 243 247 247 249 253 255 256 255 255 257 263 267 273 279 280 273 269 269 268 262 258 259 256 248 241 234 232 235 233 228 226 226 230 238 239 233 235 238 235 232 230 231 234 237 239 241 243 247 249 250 251 250 249 250 251 251 251 248 245 246 247 248 248 244 242 242 244 245 246 246 246
289 287 284 279 275 271 266 262 259 254 248 240 235 237 243 247 246 246 248 249 249 251 252 252 254 262 269 271 268 262 260 264 267 263 257 255 250 240 234 231 228 229 229 227 227 227 228 233 238 237 239 242 241 236 230 228 232 236 238 241 244 247 249 249 250 249 249 251 252 252 250 246 243 242 244 245 244 243 243 243 243 244 244 244 244
288 287 283 277 272 268 262 258 255 253 248 239 233 237 245 247 245 243 243 245 246 250 253 251 247 253 263 267 263 255 251 254 259 259 256 250 240 229 226 227 225 224 226 227 228 227 226 229 235 237 237 239 242 240 231 228 232 235 237 240 243 245 245 245 245 244 245 249 251 250 246 241 239 240 239 238 239 241 241 242 242 242 243 243 246
289 287 283 277 272 268 262 255 252 249 245 240 237 240 244 246 243 240 241 245 247 251 256 254 248 249 257 263 261 253 249 251 255 256 253 246 235 223 217 218 220 222 225 226 224 222 222 226 231 235 236 236 237 233 227 227 231 234 235 237 239 240 241 242 241 240 242 246 248 244 238 234 234 235 233 232 235 239 240 242 242 243 245 246 249
293 290 285 278 271 269 264 257 252 249 245 241 238 239 241 243 241 240 241 245 246 247 252 254 250 249 255 258 255 250 249 252 254 253 250 246 238 225 215 217 222 224 228 229 225 221 222 224 227 229 230 230 228 226 225 226 228 230 232 234 235 235 236 235 235 236 238 238 236 231 226 225 226 228 229 230 234 237 239 241 243 244 246 248 250
295 292 289 282 273 268 263 259 255 252 248 242 235 234 236 239 240 240 241 244 246 246 249 251 248 248 253 252 247 245 246 246 247 251 251 250 243 227 214 218 223 223 225 228 225 224 227 229 229 229 228 226 226 225 226 226 227 228 230 230 230 230 229 228 226 225 224 221 219 218 218 218 220 223 226 230 232 235 237 239 242 244 246 249 252
295 293 290 285 278 270 263 257 254 251 247 243 236 234 236 238 239 240 241 243 246 247 249 250 248 248 252 250 243 243 244 241 239 245 251 253 246 228 210 210 219 219 218 219 218 220 225 227 227 227 226 225 224 223 224 225 224 224 224 224 223 221 220 216 212 210 209 209 210 211 212 214 217 221 225 228 231 234 237 240 243 246 249 253 256
295 293 292 288 281 274 266 257 251 246 244 242 238 236 237 238 238 238 240 241 242 244 245 245 245 248 253 251 243 240 243 243 239 240 243 245 244 231 211 201 213 221 215 213 215 217 219 219 218 216 214 212 212 212 212 213 214 215 216 216 213 210 205 201 202 203 204 206 207 209 212 216 219 223 227 230 234 237 240 244 247 251 254 257 259
296 294 293 290 284 278 271 261 252 244 240 239 237 236 238 239 238 238 238 239 239 240 241 240 240 243 249 250 243 237 239 243 242 240 241 241 243 237 217 197 207 225 219 209 212 218 219 215 212 207 201 196 194 194 195 197 200 203 205 204 201 197 195 198 203 206 207 209 210 213 216 220 224 228 233 237 241 244 248 251 254 256 259 260 260
296 294 292 289 285 280 274 267 256 245 238 237 236 236 237 239 239 238 237 238 238 238 239 238 237 238 242 245 242 235 235 239 241 241 243 241 238 234 220 199 201 221 224 212 207 210 212 206 198 193 186 177 170 169 174 180 185 189 192 194 195 196 200 204 208 211 213 216 217 219 223 227 232 238 242 247 251 254 256 258 259 260 260 260 259
295 293 290 287 284 280 276 270 262 249 240 236 235 235 235 237 239 239 237 238 238 238 239 240 238 237 238 239 238 233 231 234 237 239 241 238 231 228 219 202 201 216 222 217 212 210 210 210 199 188 179 171 168 172 179 186 190 193 196 199 202 205 207 210 212 216 218 222 225 229 234 239 243 246 250 253 256 257 258 259 258 257 256 256 256
294 292 288 285 282 279 275 271 265 255 244 238 235 235 235 235 237 238 238 238 238 238 240 242 240 237 237 238 235 229 227 229 233 236 238 236 230 227 219 205 204 216 220 216 214 211 210 212 212 209 204 200 199 201 201 202 203 203 204 206 208 210 213 215 219 223 227 232 236 240 244 247 250 252 253 253 253 252 251 250 250 250 251 252 254
295 291 288 284 281 278 274 271 267 259 250 242 236 234 235 235 236 237 238 239 239 239 241 243 241 239 239 240 236 230 226 227 231 234 237 234 227 224 219 210 210 218 220 216 214 212 210 212 214 214 214 213 213 213 212 212 212 211 210 211 213 215 219 222 227 232 236 240 243 245 247 248 248 248 247 246 244 244 244 245 247 249 252 255 257
296 290 286 282 278 276 273 269 266 261 253 246 239 235 235 235 235 236 236 237 238 239 241 241 240 237 238 239 237 232 229 227 228 231 234 232 224 218 216 215 217 221 220 217 214 212 210 211 212 212 214 215 215 216 218 219 220 221 221 222 223 226 229 231 234 236 238 240 241 241 241 241 240 240 241 241 242 244 246 248 252 255 259 262 265
293 287 282 278 274 272 271 268 265 260 254 247 241 237 235 235 235 236 236 236 236 238 240 241 239 236 237 237 235 234 233 231 228 228 232 231 224 216 214 218 223 225 222 218 215 213 211 211 211 211 214 216 219 221 224 226 229 231 233 233 234 235 236 237 237 236 236 235 235 235 236 237 238 239 241 243 245 247 251 254 258 262 265 268 270
290 284 279 275 271 269 269 267 264 261 256 249 243 239 237 236 235 235 235 235 235 236 238 240 239 236 235 236 236 235 235 234 230 229 231 233 228 218 212 217 226 228 225 221 219 217 215 214 213 213 215 219 223 226 228 230 232 235 238 239 239 239 239 239 238 237 237 236 235 236 236 237 238 240 241 244 246 249 253 256 260 264 267 270 272
Height
5905 5904 5904 5906 5906 5905 5906 5906 5905 5906 5906 5906 5907 5907 5908 5909 5909 5909 5909 5911 5912 5913 5912 5912 5913 5913 5914 5915 5916 5917 5918 5919 5919 5920 5921 5922 5924 5924 5925 5926 5926 5926 5927 5927 5928 5928 5928 5928 5928 5929 5929 5929 5929 5929 5929 5929 5930 5930 5930 5930 5929 5927 5927 5927 5927 5927 5927 5927 5927 5926 5926 5926 5927 5926 5925 5924 5924 5923 5923 5922 5922 5922 5922 5922 5922
5905 5903 5903 5905 5906 5904 5904 5904 5903 5904 5904 5904 5904 5905 5906 5907 5907 5907 5908 5908 5910 5911 5911 5911 5912 5912 5913 5914 5915 5917 5918 5919 5920 5921 5922 5922 5923 5924 5924 5925 5925 5926 5926 5926 5927 5927 5928 5928 5928 5928 5928 5929 5929 5929 5929 5930 5930 5929 5929 5930 5929 5928 5927 5927 5927 5927 5927 5927 5927 5927 5927 5927 5927 5927 5926 5925 5925 5924 5924 5923 5923 5923 5922 5922 5922
5904 5902 5902 5904 5905 5903 5902 5902 5902 5902 5902 5902 5903 5905 5906 5906 5906 5906 5906 5906 5907 5909 5911 5911 5911 5911 5913 5914 5916 5917 5918 5920 5920 5921 5922 5922 5922 5923 5923 5923 5924 5924 5925 5925 5926 5927 5927 5927 5927 5928 5928 5928 5929 5929 5929 5929 5929 5929 5929 5930 5929 5928 5927 5927 5927 5927 5927 5927 5927 5927 5927 5927 5927 5927 5927 5926 5925 5925 5924 5924 5924 5923 5923 5923 5922
5903 5901 5900 5903 5904 5902 5900 5900 5901 5900 5901 5902 5902 5903 5904 5904 5905 5905 5906 5906 5907 5908 5910 5910 5910 5911 5912 5913 5915 5916 5917 5919 5919 5920 5920 5921 5921 5921 5921 5922 5922 5923 5924 5925 5925 5926 5926 5927 5927 5927 5927 5928 5928 5928 5928 5928 5928 5928 5929 5929 5928 5927 5927 5927 5927 5927 5928 5927 5927 5927 5927 5928 5928 5927 5927 5926 5926 5925 5925 5925 5925 5924 5924 5923 5923
5903 5900 5898 5900 5903 5902 5900 5899 5900 5900 5899 5899 5899 5900 5900 5901 5902 5904 5905 5907 5907 5908 5909 5910 5910 5910 5911 5912 5913 5914 5915 5916 5917 5917 5918 5918 5919 5919 5920 5920 5921 5922 5923 5923 5924 5925 5926 5926 5926 5926 5927 5927 5927 5927 5927 5927 5927 5927 5928 5928 5928 5927 5927 5926 5927 5927 5927 5927 5927 5927 5927 5927 5928 5927 5927 5927 5926 5926 5925 5925 5925 5925 5924 5924 5924
5903 5901 5898 5897 5900 5902 5900 5899 5898 5898 5898 5898 5899 5899 5899 5900 5901 5902 5903 5904 5905 5908 5909 5909 5909 5908 5908 5909 5910 5911 5912 5913 5914 5914 5915 5917 5918 5918 5919 5919 5920 5921 5922 5922 5923 5924 5925 5925 5925 5925 5926 5926 5926 5926 5926 5926 5926 5926 5927 5927 5926 5926 5926 5926 5926 5927 5927 5927 5928 5927 5927 5927 5927 5927 5927 5927 5927 5927 5926 5926 5926 5926 5925 5925 5925
5904 5902 5899 5897 5898 5900 5900 5898 5897 5897 5897 5899 5899 5898 5898 5899 5900 5900 5901 5902 5903 5905 5908 5908 5908 5907 5906 5907 5907 5909 5910 5911 5912 5914 5915 5916 5917 5918 5918 5919 5919 5920 5920 5921 5922 5923 5923 5924 5924 5924 5925 5925 5925 5925 5925 5925 5925 5925 5925 5925 5925 5925 5925 5925 5925 5926 5926 5927 5927 5927 5927 5927 5927 5927 5927 5928 5928 5927 5927 5927 5927 5927 5926 5926 5926
5905 5903 5901 5899 5897 5897 5897 5897 5896 5895 5896 5897 5897 5896 5896 5896 5897 5898 5899 5901 5902 5902 5904 5906 5907 5906 5905 5905 5905 5907 5908 5909 5911 5913 5914 5915 5916 5917 5917 5917 5918 5918 5919 5919 5920 5921 5922 5923 5923 5923 5923 5924 5924 5924 5924 5924 5924 5924 5924 5924 5924 5924 5924 5924 5925 5925 5926 5926 5927 5927 5927 5927 5928 5928 5928 5928 5928 5928 5928 5928 5928 5928 5927 5927 5927
5905 5904 5902 5900 5898 5896 5895 5895 5895 5894 5895 5895 5894 5893 5893 5893 5894 5895 5897 5899 5900 5901 5901 5903 5904 5904 5904 5904 5904 5905 5906 5908 5910 5911 5912 5913 5914 5915 5915 5916 5916 5917 5917 5918 5919 5919 5920 5921 5921 5922 5922 5922 5923 5923 5923 5923 5923 5923 5923 5923 5923 5923 5924 5924 5924 5924 5925 5926 5926 5926 5927 5927 5928 5928 5928 5928 5928 5928 5928 5928 5929 5929 5928 5928 5928
5906 5904 5902 5901 5899 5897 5895 5894 5894 5893 5893 5892 5891 5890 5890 5890 5891 5892 5894 5895 5897 5899 5899 5900 5901 5902 5902 5903 5903 5903 5904 5906 5908 5910 5911 5911 5912 5913 5913 5914 5915 5915 5916 5916 5917 5917 5918 5919 5919 5920 5920 5921 5921 5922 5922 5922 5922 5922 5922 5923 5923 5923 5924 5924 5925 5925 5925 5926 5926 5927 5927 5927 5928 5928 5928 5928 5928 5928 5928 5928 5929 5929 5929 5929 5929
5906 5904 5902 5901 5900 5898 5896 5895 5893 5892 5891 5889 5888 5887 5887 5887 5887 5888 5890 5892 5894 5896 5897 5898 5900 5900 5900 5901 5902 5902 5903 5905 5907 5908 5908 5909 5910 5911 5912 5912 5913 5914 5914 5915 5915 5916 5916 5917 5917 5918 5919 5919 5920 5921 5921 5921 5921 5921 5922 5922 5922 5923 5923 5924 5924 5925 5925 5926 5926 5927 5927 5927 5928 5928 5928 5928 5928 5928 5928 5928 5928 5928 5929 5929 5929
5906 5904 5902 5901 5900 5898 5897 5894 5892 5890 5889 5887 5887 5887 5886 5885 5886 5886 5887 5889 5891 5894 5895 5897 5899 5898 5898 5900 5900 5901 5902 5903 5904 5905 5906 5907 5908 5909 5910 5911 5912 5912 5913 5913 5914 5914 5914 5915 5916 5917 5918 5918 5919 5919 5920 5920 5920 5920 5920 5921 5922 5923 5923 5923 5923 5923 5924 5925 5925 5926 5926 5926 5927 5927 5928 5928 5928 5928 5928 5928 5928 5928 5928 5929 5929
5905 5904 5902 5901 5899 5898 5896 5894 5892 5889 5887 5887 5887 5887 5885 5884 5883 5884 5884 5885 5888 5891 5893 5895 5896 5896 5896 5898 5899 5900 5901 5902 5903 5904 5905 5905 5906 5908 5908 5909 5910 5911 5911 5912 5912 5913 5913 5914 5915 5916 5916 5917 5917 5918 5918 5919 5919 5919 5920 5921 5922 5922 5922 5922 5922 5923 5924 5924 5924 5924 5924 5925 5925 5926 5927 5927 5928 5928 5928 5928 5928 5928 5928 5929 5929
5905 5903 5902 5900 5899 5897 5895 5893 5890 5888 5887 5887 5886 5886 5885 5884 5883 5882 5882 5883 5885 5888 5890 5892 5893 5893 5894 5896 5898 5899 5900 5901 5902 5903 5904 5904 5905 5906 5907 5908 5909 5909 5910 5910 5911 5912 5912 5913 5913 5914 5915 5915 5916 5916 5917 5918 5918 5918 5919 5920 5921 5921 5921 5921 5922 5922 5923 5924 5924 5924 5924 5924 5925 5925 5925 5926 5927 5927 5927 5927 5927 5928 5928 5928 5929
5904 5903 5902 5900 5898 5896 5894 5891 5889 5888 5888 5887 5885 5884 5884 5883 5882 5882 5882 5882 5883 5885 5887 5889 5890 5891 5893 5895 5897 5898 5899 5900 5901 5902 5903 5904 5904 5906 5907 5907 5908 5908 5908 5909 5910 5911 5911 5912 5913 5913 5914 5914 5915 5916 5917 5917 5917 5918 5919 5919 5920 5920 5921 5921 5921 5922 5922 5923 5924 5924 5923 5924 5924 5925 5925 5925 5926 5926 5926 5927 5927 5927 5927 5928 5928
5903 5902 5901 5900 5898 5896 5893 5891 5888 5887 5888 5887 5885 5883 5882 5881 5880 5880 5881 5881 5882 5884 5885 5887 5888 5889 5891 5893 5895 5897 5898 5899 5899 5900 5901 5902 5903 5905 5906 5906 5907 5907 5907 5908 5909 5910 5910 5911 5911 5912 5913 5913 5914 5916 5916 5916 5916 5917 5918 5919 5919 5920 5920 5920 5921 5921 5921 5922 5922 5923 5923 5924 5924 5924 5925 5924 5925 5925 5925 5925 5926 5926 5927 5927 5927
5902 5901 5899 5898 5897 5895 5893 5891 5888 5886 5886 5887 5885 5883 5881 5880 5879 5878 5879 5879 5881 5883 5884 5885 5886 5887 5889 5891 5893 5895 5896 5897 5897 5898 5899 5901 5902 5903 5904 5905 5906 5906 5907 5907 5908 5908 5909 5909 5910 5911 5912 5913 5914 5914 5915 5915 5915 5916 5917 5917 5918 5919 5919 5919 5919 5920 5920 5920 5921 5922 5922 5923 5923 5924 5924 5924 5924 5925 5925 5924 5925 5925 5926 5927 5927
5900 5899 5898 5896 5895 5894 5892 5890 5888 5886 5885 5885 5884 5883 5881 5880 5878 5877 5877 5877 5879 5882 5883 5884 5885 5886 5887 5888 5890 5892 5893 5894 5894 5895 5896 5898 5899 5900 5902 5903 5904 5905 5906 5906 5907 5907 5908 5908 5909 5910 5911 5912 5913 5913 5914 5914 5914 5915 5916 5916 5917 5918 5918 5918 5918 5919 5919 5919 5920 5921 5921 5921 5922 5922 5923 5924 5923 5923 5924 5924 5924 5925 5925 5926 5926
5898 5897 5896 5895 5893 5892 5891 5889 5888 5886 5884 5883 5882 5882 5881 5879 5877 5876 5876 5877 5879 5880 5881 5883 5884 5885 5885 5885 5886 5888 5889 5891 5891 5892 5894 5895 5896 5897 5899 5901 5902 5904 5905 5906 5907 5907 5907 5908 5909 5910 5911 5911 5912 5912 5912 5912 5913 5913 5914 5914 5916 5917 5917 5916 5916 5916 5917 5917 5918 5919 5919 5919 5920 5920 5921 5922 5922 5922 5922 5923 5923 5924 5924 5925 5925
5895 5895 5894 5893 5892 5890 5889 5888 5887 5885 5884 5883 5882 5881 5880 5879 5877 5875 5875 5876 5878 5879 5879 5880 5882 5883 5883 5883 5884 5885 5887 5889 5890 5891 5893 5894 5894 5895 5896 5897 5899 5901 5903 5905 5906 5907 5907 5907 5908 5909 5909 5910 5910 5910 5911 5911 5911 5911 5911 5911 5912 5913 5913 5913 5913 5914 5915 5916 5917 5917 5917 5917 5918 5919 5919 5920 5920 5921 5921 5921 5922 5922 5923 5923 5924
5892 5892 5892 5891 5890 5889 5887 5886 5885 5885 5884 5882 5881 5880 5879 5878 5876 5875 5874 5875 5876 5877 5878 5879 5880 5881 5881 5881 5883 5884 5886 5887 5889 5890 5891 5892 5893 5894 5894 5895 5896 5898 5900 5902 5904 5905 5906 5906 5907 5907 5907 5908 5908 5908 5908 5909 5909 5909 5909 5910 5910 5911 5911 5911 5912 5913 5914 5915 5915 5916 5916 5916 5916 5918 5918 5918 5918 5919 5919 5919 5920 5920 5921 5921 5922
5888 5888 5888 5888 5888 5887 5886 5885 5884 5884 5883 5882 5881 5880 5879 5878 5876 5874 5873 5874 5875 5876 5877 5877 5877 5877 5878 5879 5880 5882 5883 5884 5885 5887 5888 5889 5890 5892 5893 5893 5894 5894 5896 5898 5900 5902 5903 5904 5905 5905 5905 5906 5906 5906 5906 5907 5907 5907 5908 5908 5909 5910 5910 5910 5911 5912 5912 5913 5914 5915 5915 5915 5915 5916 5916 5916 5917 5917 5917 5917 5917 5918 5919 5919 5920
5884 5884 5884 5885 5885 5885 5884 5883 5883 5882 5881 5880 5879 5878 5877 5877 5876 5875 5874 5873 5874 5874 5875 5875 5875 5875 5875 5876 5876 5877 5878 5879 5881 5882 5884 5886 5887 5888 5889 5890 5891 5892 5894 5896 5898 5899 5900 5901 5901 5902 5903 5903 5903 5904 5904 5904 5905 5905 5906 5906 5907 5907 5908 5909 5909 5910 5910 5911 5912 5912 5912 5912 5913 5914 5914 5914 5914 5915 5915 5915 5915 5915 5916 5917 5917
5879 5879 5880 5880 5881 5882 5881 5881 5881 5880 5879 5878 5877 5876 5875 5875 5875 5875 5874 5874 5873 5873 5873 5873 5873 5874 5874 5874 5875 5875 5875 5876 5877 5879 5881 5882 5884 5884 5885 5886 5888 5889 5891 5893 5894 5895 5896 5897 5898 5899 5900 5900 5901 5901 5902 5902 5903 5903 5903 5904 5904 5905 5906 5906 5907 5908 5908 5909 5909 5910 5910 5910 5911 5911 5911 5911 5912 5912 5912 5912 5912 5913 5913 5914 5914
5874 5874 5875 5876 5877 5878 5878 5878 5878 5877 5876 5875 5874 5874 5874 5874 5874 5874 5874 5873 5873 5872 5871 5871 5871 5871 5871 5872 5873 5874 5874 5875 5876 5877 5879 5881 5882 5882 5883 5884 5885 5886 5887 5888 5889 5891 5892 5894 5895 5896 5896 5897 5898 5898 5899 5899 5900 5900 5900 5901 5902 5903 5904 5904 5905 5905 5906 5906 5907 5908 5908 5908 5909 5909 5909 5909 5909 5909 5909 5910 5910 5910 5911 5912 5912
5869 5869 5870 5871 5872 5873 5874 5875 5874 5873 5872 5871 5871 5871 5872 5872 5872 5872 5872 5871 5871 5870 5869 5869 5868 5868 5868 5868 5869 5870 5871 5872 5873 5875 5877 5879 5880 5881 5881 5882 5883 5883 5884 5885 5886 5888 5889 5890 5891 5892 5893 5894 5894 5895 5896 5896 5897 5897 5898 5898 5899 5900 5901 5902 5903 5903 5903 5903 5904 5904 5905 5906 5906 5906 5906 5906 5906 5906 5906 5907 5908 5908 5909 5910 5910
5863 5864 5864 5865 5867 5868 5870 5870 5870 5869 5868 5868 5869 5869 5869 5870 5870 5871 5870 5869 5868 5867 5867 5867 5867 5866 5866 5865 5865 5865 5866 5868 5870 5873 5874 5875 5876 5877 5878 5879 5881 5881 5882 5883 5884 5885 5886 5886 5887 5888 5889 5890 5891 5892 5893 5893 5894 5894 5895 5895 5896 5897 5898 5899 5900 5900 5900 5901 5901 5902 5902 5903 5903 5903 5904 5904 5904 5904 5904 5904 5905 5906 5907 5908 5908
5858 5858 5858 5860 5861 5863 5865 5866 5865 5864 5864 5865 5866 5866 5867 5867 5868 5869 5869 5867 5866 5865 5865 5865 5865 5865 5864 5863 5863 5863 5864 5865 5867 5869 5870 5869 5870 5872 5874 5876 5877 5879 5880 5880 5881 5882 5882 5883 5883 5884 5885 5886 5887 5889 5889 5890 5891 5891 5892 5893 5893 5894 5895 5896 5897 5897 5897 5898 5898 5899 5900 5900 5900 5901 5901 5902 5902 5902 5902 5902 5903 5904 5905 5905 5906
5852 5851 5851 5854 5855 5857 5859 5861 5860 5859 5859 5861 5862 5863 5864 5864 5865 5866 5866 5864 5863 5863 5863 5864 5864 5863 5862 5862 5861 5861 5862 5863 5864 5864 5864 5864 5866 5868 5869 5870 5872 5874 5875 5876 5877 5878 5878 5879 5880 5881 5882 5883 5884 5885 5886 5886 5887 5888 5889 5890 5891 5892 5892 5893 5894 5894 5894 5894 5895 5897 5898 5898 5897 5898 5900 5900 5900 5900 5900 5901 5901 5901 5902 5903 5904
5848 5846 5844 5845 5848 5851 5853 5855 5856 5855 5854 5856 5858 5860 5861 5861 5862 5862 5862 5861 5861 5860 5860 5861 5862 5861 5861 5860 5860 5859 5860 5860 5859 5859 5859 5860 5861 5863 5864 5865 5866 5868 5869 5870 5872 5873 5875 5876 5876 5877 5878 5879 5881 5882 5883 5883 5884 5885 5886 5887 5888 5888 5889 5890 5890 5891 5891 5891 5892 5894 5895 5895 5895 5896 5897 5898 5898 5898 5898 5899 5899 5899 5900 5901 5901
5843 5842 5840 5838 5840 5844 5847 5850 5851 5851 5850 5852 5854 5855 5857 5858 5859 5858 5858 5858 5858 5857 5857 5858 5858 5858 5858 5857 5857 5857 5857 5856 5855 5854 5854 5855 5857 5858 5859 5860 5861 5862 5864 5866 5867 5869 5870 5872 5873 5873 5874 5876 5877 5878 5879 5880 5881 5881 5882 5883 5884 5885 5886 5887 5887 5887 5888 5888 5889 5891 5892 5892 5893 5894 5895 5895 5895 5896 5896 5896 5896 5897 5898 5898 5898
5836 5836 5836 5834 5834 5836 5839 5843 5845 5846 5847 5847 5849 5851 5853 5854 5855 5854 5854 5854 5855 5854 5854 5854 5853 5853 5854 5854 5853 5853 5853 5852 5851 5850 5850 5851 5852 5852 5853 5854 5855 5856 5858 5860 5863 5865 5866 5867 5869 5869 5870 5872 5873 5874 5875 5877 5877 5878 5879 5880 5881 5882 5883 5883 5884 5884 5885 5885 5886 5888 5890 5890 5890 5891 5892 5893 5893 5894 5894 5894 5894 5895 5895 5895 5895
5829 5829 5830 5829 5829 5830 5832 5836 5838 5840 5842 5843 5844 5846 5848 5850 5851 5850 5849 5850 5851 5851 5851 5851 5850 5850 5850 5850 5849 5848 5848 5848 5846 5846 5846 5847 5847 5848 5849 5849 5850 5851 5853 5855 5858 5860 5862 5864 5865 5865 5865 5866 5867 5868 5871 5872 5873 5874 5875 5877 5878 5879 5880 5881 5881 5882 5882 5883 5883 5885 5886 5887 5888 5889 5890 5891 5891 5892 5892 5892 5892 5893 5893 5893 5893
5824 5823 5823 5824 5824 5824 5825 5828 5831 5833 5835 5838 5840 5841 5844 5846 5847 5846 5846 5846 5847 5848 5848 5847 5847 5847 5847 5846 5845 5844 5844 5843 5843 5842 5842 5843 5843 5844 5844 5845 5846 5847 5848 5849 5852 5856 5858 5860 5859 5859 5860 5861 5862 5864 5865 5867 5868 5870 5872 5873 5875 5876 5877 5878 5879 5880 5880 5880 5881 5882 5883 5884 5885 5886 5887 5889 5889 5890 5890 5890 5891 5891 5891 5891 5891
5818 5818 5818 5818 5819 5820 5821 5822 5824 5826 5829 5833 5835 5837 5839 5841 5842 5842 5842 5843 5844 5844 5844 5844 5844 5844 5843 5843 5842 5840 5840 5840 5840 5839 5839 5840 5840 5840 5840 5840 5842 5843 5843 5844 5848 5851 5854 5853 5852 5851 5853 5855 5856 5858 5859 5861 5864 5867 5869 5870 5871 5872 5874 5875 5876 5878 5879 5879 5879 5879 5880 5881 5881 5882 5883 5885 5886 5886 5888 5888 5888 5888 5888 5888 5889
5815 5814 5814 5813 5813 5815 5816 5817 5819 5821 5824 5827 5829 5832 5835 5836 5838 5838 5839 5839 5839 5840 5839 5839 5839 5840 5840 5839 5838 5837 5837 5837 5837 5837 5836 5837 5837 5837 5837 5838 5839 5840 5840 5841 5844 5847 5848 5848 5846 5846 5849 5850 5849 5850 5853 5857 5860 5863 5864 5866 5868 5869 5871 5872 5874 5875 5876 5877 5877 5877 5877 5878 5878 5879 5880 5881 5881 5883 5884 5885 5885 5885 5885 5886 5887
5812 5811 5810 5809 5809 5809 5811 5812 5813 5815 5818 5821 5824 5827 5830 5831 5833 5834 5834 5834 5833 5834 5834 5834 5834 5835 5836 5836 5835 5834 5834 5835 5835 5834 5834 5834 5834 5835 5835 5835 5836 5837 5838 5839 5841 5842 5844 5844 5843 5845 5847 5847 5846 5847 5850 5853 5856 5858 5860 5863 5865 5867 5868 5870 5871 5872 5873 5874 5875 5875 5875 5875 5875 5876 5877 5878 5879 5880 5881 5882 5882 5883 5883 5884 5884
5809 5807 5807 5806 5805 5805 5806 5807 5808 5810 5812 5816 5819 5822 5824 5826 5827 5829 5829 5828 5828 5830 5832 5831 5830 5830 5831 5832 5832 5831 5831 5832 5832 5831 5832 5832 5832 5832 5832 5833 5834 5834 5835 5836 5837 5838 5839 5840 5841 5842 5844 5844 5844 5845 5848 5850 5852 5855 5857 5860 5862 5864 5865 5866 5867 5868 5870 5871 5872 5872 5872 5873 5874 5874 5875 5876 5877 5878 5879 5880 5880 5881 5881 5882 5882
5806 5804 5803 5802 5802 5802 5802 5803 5804 5806 5808 5811 5813 5816 5819 5821 5822 5823 5822 5822 5825 5829 5830 5829 5826 5825 5827 5828 5829 5829 5829 5829 5829 5829 5830 5830 5830 5830 5830 5831 5831 5832 5832 5832 5833 5834 5835 5837 5838 5839 5840 5840 5841 5842 5844 5847 5849 5852 5854 5856 5858 5860 5861 5863 5864 5865 5867 5868 5869 5870 5870 5871 5872 5873 5874 5875 5876 5877 5878 5878 5879 5879 5880 5880 5880
5802 5801 5800 5799 5798 5798 5798 5799 5800 5802 5803 5806 5808 5810 5813 5815 5817 5818 5817 5819 5822 5825 5825 5824 5823 5822 5823 5824 5825 5826 5826 5826 5827 5827 5828 5829 5829 5828 5828 5828 5829 5830 5829 5829 5830 5831 5832 5833 5834 5836 5836 5837 5838 5840 5842 5844 5846 5848 5850 5852 5854 5857 5858 5860 5861 5862 5864 5865 5866 5867 5867 5869 5870 5871 5872 5874 5875 5876 5877 5877 5877 5878 5878 5878 5878
5798 5797 5796 5796 5795 5794 5795 5795 5796 5798 5799 5801 5803 5805 5808 5810 5812 5813 5813 5814 5818 5820 5820 5819 5818 5818 5820 5821 5822 5823 5824 5824 5825 5825 5826 5827 5827 5827 5826 5826 5828 5828 5827 5827 5828 5828 5828 5829 5831 5833 5834 5835 5836 5838 5840 5842 5844 5846 5848 5850 5852 5854 5855 5857 5858 5859 5861 5862 5863 5864 5866 5867 5868 5869 5871 5872 5873 5874 5875 5875 5875 5876 5876 5876 5876
5795 5794 5793 5792 5792 5791 5791 5791 5792 5794 5795 5797 5799 5801 5803 5805 5807 5809 5809 5810 5813 5815 5816 5816 5815 5815 5817 5818 5820 5820 5821 5822 5823 5823 5824 5825 5826 5826 5825 5825 5827 5827 5826 5826 5826 5826 5826 5828 5829 5831 5832 5833 5835 5837 5839 5841 5842 5844 5846 5848 5850 5851 5853 5854 5856 5858 5859 5861 5862 5863 5864 5865 5866 5868 5869 5870 5871 5872 5872 5873 5873 5873 5873 5873 5873
5792 5790 5789 5789 5788 5788 5787 5788 5789 5790 5792 5793 5795 5797 5799 5801 5803 5805 5806 5807 5809 5811 5812 5813 5813 5813 5814 5815 5817 5818 5819 5819 5820 5821 5822 5823 5825 5826 5825 5824 5826 5827 5825 5825 5825 5825 5826 5827 5828 5829 5831 5832 5834 5836 5838 5840 5841 5843 5845 5847 5848 5850 5851 5853 5855 5857 5859 5860 5861 5862 5863 5864 5865 5866 5867 5868 5869 5870 5870 5871 5871 5871 5871 5871 5871
5789 5787 5786 5785 5785 5784 5784 5784 5785 5787 5788 5789 5791 5793 5795 5797 5799 5801 5802 5804 5806 5807 5808 5809 5810 5810 5811 5812 5814 5816 5817 5817 5817 5818 5820 5821 5823 5825 5824 5823 5825 5826 5826 5825 5824 5824 5825 5826 5827 5828 5829 5831 5833 5835 5837 5839 5841 5842 5844 5846 5847 5849 5851 5853 5855 5857 5858 5859 5860 5861 5862 5863 5864 5864 5865 5866 5867 5868 5868 5868 5869 5869 5869 5869 5869
5785 5784 5783 5782 5781 5781 5780 5780 5781 5783 5785 5786 5787 5789 5791 5792 5794 5797 5798 5800 5802 5803 5803 5804 5805 5806 5807 5809 5811 5813 5814 5815 5815 5817 5819 5820 5822 5823 5823 5822 5823 5825 5826 5825 5824 5824 5825 5826 5827 5828 5830 5831 5833 5835 5837 5839 5841 5843 5844 5846 5848 5850 5851 5853 5854 5855 5856 5857 5858 5859 5860 5861 5862 5863 5864 5865 5865 5866 5866 5866 5867 5867 5867 5867 5867
5781 5780 5779 5779 5778 5777 5777 5777 5777 5779 5781 5782 5783 5785 5787 5788 5790 5792 5794 5796 5798 5799 5798 5799 5802 5804 5804 5805 5807 5809 5811 5812 5814 5815 5817 5819 5820 5822 5823 5822 5823 5824 5825 5825 5824 5824 5825 5826 5828 5829 5831 5832 5834 5836 5838 5840 5842 5844 5845 5847 5848 5850 5851 5852 5853 5854 5855 5856 5857 5858 5859 5860 5860 5861 5862 5862 5863 5863 5864 5864 5864 5864 5864 5864 5865
5778 5776 5776 5775 5774 5773 5773 5773 5774 5775 5776 5778 5779 5781 5782 5784 5786 5788 5790 5792 5793 5794 5793 5795 5799 5801 5801 5802 5803 5805 5807 5809 5811 5813 5815 5817 5818 5820 5821 5821 5822 5823 5824 5824 5824 5824 5825 5826 5828 5829 5831 5833 5835 5837 5839 5841 5842 5844 5845 5846 5847 5849 5850 5851 5852 5853 5854 5854 5855 5856 5857 5858 5858 5859 5860 5860 5861 5861 5861 5861 5861 5862 5862 5862 5862
5774 5772 5772 5771 5770 5769 5769 5770 5770 5771 5772 5773 5775 5777 5778 5780 5781 5783 5785 5787 5789 5789 5789 5791 5795 5798 5798 5799 5801 5802 5803 5806 5808 5810 5813 5815 5816 5818 5819 5820 5821 5822 5823 5823 5823 5824 5824 5826 5828 5830 5832 5834 5836 5837 5839 5840 5842 5843 5844 5845 5846 5847 5848 5849 5850 5851 5852 5853 5854 5855 5855 5856 5856 5856 5857 5857 5858 5858 5858 5858 5859 5859 5859 5859 5859
5769 5768 5767 5767 5766 5765 5765 5765 5766 5767 5768 5769 5771 5773 5774 5775 5777 5778 5780 5782 5784 5784 5785 5786 5790 5793 5795 5796 5798 5800 5801 5803 5805 5807 5810 5812 5814 5815 5817 5818 5819 5820 5822 5823 5823 5823 5824 5826 5828 5830 5832 5834 5835 5837 5838 5840 5841 5842 5843 5844 5845 5846 5847 5848 5849 5850 5850 5851 5852 5852 5853 5853 5853 5854 5854 5855 5855 5855 5856 5856 5856 5856 5857 5857 5857
5764 5763 5762 5762 5762 5761 5761 5760 5761 5763 5764 5766 5767 5768 5770 5771 5772 5774 5776 5778 5779 5780 5780 5781 5785 5789 5792 5792 5795 5797 5798 5799 5801 5803 5806 5808 5811 5812 5813 5815 5817 5819 5820 5821 5822 5822 5823 5825 5827 5829 5831 5833 5834 5836 5837 5838 5840 5841 5842 5843 5844 5845 5846 5846 5847 5847 5848 5849 5849 5849 5850 5850 5851 5851 5852 5852 5853 5853 5853 5854 5854 5854 5854 5855 5854
5759 5758 5757 5757 5757 5757 5757 5757 5757 5758 5760 5762 5763 5764 5766 5767 5768 5769 5771 5773 5774 5775 5776 5777 5780 5785 5788 5789 5791 5794 5795 5796 5798 5800 5802 5804 5807 5809 5810 5812 5814 5816 5818 5819 5820 5821 5822 5823 5825 5827 5829 5831 5832 5834 5835 5837 5838 5839 5840 5841 5842 5843 5844 5844 5845 5845 5846 5846 5847 5847 5848 5848 5849 5849 5849 5850 5850 5850 5851 5851 5851 5851 5851 5851 5851